Flag for U.S.A. Weather past 2 weeks in Ocala, Florida, U.S.A.

Now
66 °F

Fog.


Feels Like: 66 °F
Forecast: 59 / 78 °F
Wind: 6 mph from South

Location: Ocala Municipal

Current Time: Dec 29, 2014 at 11:51:07 AM

Latest Report: Dec 29, 2014 at 10:50 AM


Visibility: 6 mi

Pressure: 30.16 "Hg

Humidity: 94%

Dew point: 64 °F

Location of OcalaLocation

Historic Weather in Ocala — Graph

°F

Ocala temperature yesterday

Maximum temperature yesterday: 79 °F (at 2:50 PM)
Minimum temperature yesterday: 57 °F (at 10:35 PM)
Average temperature yesterday: 64 °F

Past Weeks' High & Low Weather Summary

 TemperatureHumidityPressure
High82 °F (Dec 24, 12:50 PM)94% (Dec 15, 10:50 AM)30.30 "Hg (Dec 15, 10:50 AM)
Low36 °F (Dec 15, 1:35 AM)21% (Dec 14, 1:50 PM)29.80 "Hg (Dec 24, 1:50 PM)
Average58 °F81%30.10 "Hg
* Reported Dec 14 10:50 AM — Dec 29 10:50 AM, Ocala, Weather by CustomWeather, © 2014

Note: Actual official high and low records may vary slightly from our data, if they occured in-between our weather recording intervals... More about our weather records

Advertising

Ocala weather history for previous 24 hours

 ConditionsComfort  
Time TempWeatherWind HumidityBarometerVisibility
10:50 AM
Dec 29
66 °FFog.6 mph94%30.16 "Hg6 mi
9:50 AM64 °FFog.6 mph94%30.16 "Hg1 mi
8:50 AM63 °FFog.No wind94%30.14 "Hg1 mi
7:50 AM63 °FFog.6 mph94%30.12 "Hg0 mi
6:50 AM63 °FFog.7 mph94%30.09 "Hg0 mi
6:35 AM63 °FLow clouds.8 mph94%30.08 "Hg1 mi
6:15 AM63 °FLow clouds.6 mph94%30.07 "Hg1 mi
5:55 AM63 °FLow clouds.7 mph94%30.08 "Hg0 mi
5:35 AM63 °FLow clouds.7 mph94%30.07 "Hg1 mi
5:15 AM63 °FLow clouds.7 mph94%30.07 "Hg1 mi
4:55 AM63 °FLow clouds.5 mph94%30.07 "Hg0 mi
4:35 AM63 °FLow clouds.No wind94%30.08 "Hg1 mi
4:15 AM63 °FLow clouds.No wind94%30.08 "Hg1 mi
3:55 AM63 °FLow clouds.3 mph94%30.08 "Hg0 mi
3:35 AM63 °FLow clouds.6 mph94%30.08 "Hg0 mi
3:15 AM63 °FLow clouds.6 mph94%30.09 "Hg0 mi
2:55 AM63 °FLow clouds.5 mph94%30.09 "Hg1 mi
2:35 AM59 °FLow clouds.3 mph94%30.10 "Hg0 mi
2:15 AM59 °FLow clouds.No wind94%30.11 "Hg1 mi
1:55 AM57 °FLow clouds.No wind94%30.11 "Hg2 mi
1:35 AM57 °FLow clouds.No wind94%30.11 "Hg0 mi
1:15 AM57 °FLow clouds.No wind94%30.11 "Hg0 mi
12:55 AM57 °FLow clouds.No wind88%30.11 "Hg1 mi
12:35 AM57 °FLow clouds.No wind94%30.10 "Hg1 mi
12:15 AM57 °FPassing clouds.No wind94%30.11 "Hg0 mi
11:55 PM
Dec 28
57 °FPassing clouds.No wind94%30.12 "Hg0 mi
11:35 PM57 °FDense fog.No wind94%30.12 "Hg0 mi
11:15 PM57 °FDense fog.No wind94%30.12 "Hg0 mi
10:55 PM59 °FDense fog.No wind94%30.13 "Hg0 mi
10:35 PM57 °FDense fog.No wind94%30.13 "Hg1 mi
10:15 PM59 °FClear.No wind94%30.12 "Hg1 mi
9:55 PM61 °FDense fog.No wind88%30.13 "Hg1 mi
9:35 PM59 °FDense fog.No wind94%30.13 "Hg0 mi
9:15 PM61 °FClear.No wind94%30.13 "Hg5 mi
8:55 PM63 °FClear.No wind94%30.13 "Hg3 mi
8:35 PM63 °FDense fog.No wind88%30.13 "Hg1 mi
8:15 PM63 °FClear.No wind94%30.11 "Hg3 mi
7:55 PM64 °FClear.No wind88%30.11 "Hg7 mi
6:50 PM64 °FClear.No wind88%30.11 "Hg10 mi
5:50 PM72 °FPassing clouds.No wind73%30.10 "Hg10 mi
4:50 PM73 °FScattered clouds.6 mph74%30.10 "Hg10 mi
3:50 PM75 °FBroken clouds.9 mph69%30.10 "Hg10 mi
2:50 PM79 °FBroken clouds.9 mph65%30.09 "Hg10 mi
1:50 PM77 °FPartly sunny.7 mph69%30.10 "Hg10 mi
12:50 PM77 °FPartly sunny.9 mph69%30.12 "Hg10 mi
11:50 AM77 °FScattered clouds.6 mph69%30.15 "Hg10 mi
Weather by CustomWeather, © 2014

See weather overviewHow to use our weather pages